CUBEBUG 1

Satellite information

Favourite Embed

Satellite Type and Status

PAYLOADIN ORBIT

Key statistics

Satellite CUBEBUG 1 at a glance.

Uptime

4619

Days in orbit

Revolutions

≈ 15.0

Per day

Orbit

SSO

Sun Synchronous Orbit

Inclination

98.1

Latest

Satellite identification and parameters

Extended collection of information and parameters for CUBEBUG 1.

Object identification

Identified? True

Debris? False

Object name: CUBEBUG 1

International designator: 2013-018D

Object number (NORAD): 39153

Object ID (CCSDS): 39153

Country: ARGENTINA (ARGN)

Current information (Y/N): Y

RCS size: SMALL

Orbital parameters

Period: 96.276 minutes

Inclination: 98.1426 deg

SMA: 6958.317 km

Apoapsis: 589.062 km

Periapsis: 571.302 km

RAAN: 139.1698 deg

Eccentricy: 0.00127613

Argument of periapsis: 33.347 deg

Mean anomaly: 326.8551 deg

Mean motion: 14.95706803 rev/day

Mean motion (dot): 0.00003196 rev/day2

B* drag term: 0.00029234204 1/REarth

Two-line elements (TLE)

Creation date: Dec. 18, 2025, 2:19 a.m.

Reference frame: TEME

Reference center: EARTH

Epoch: Dec. 17, 2025, 8:17 p.m. UTC

TLE line 0: 0 CUBEBUG 1

TLE line 1: 1 39153U 13018D 25351.84576937 .00003196 00000-0 29234-3 0 9991

TLE line 2: 2 39153 98.1426 139.1698 0012761 33.3470 326.8551 14.95706803683940

Live tracking on map

Real-time ground track for satellite CUBEBUG 1.

In-orbit conjunctions

There are no conjunctions computed for CUBEBUG 1, at the moment. Check back to stay up to date, as we update our databases every day.

Go to all conjunctions

Associated space launch

CUBEBUG 1 was lifted into orbit during the mission ‘Long March 2D | Gaofen 1’, on board a Long March 2D space rocket.

The launch took place on April 26, 2013, 4:13 a.m. from Launch Area 94 (SLS-2 / 603).

For more information about the launch, click the button.

Launch to space Long March 2D | Gaofen 1
Long March 2D | Gaofen 1

Agency: N/A

Status: Launch Successful

Launch date: April 26, 2013, 4:13 a.m. UTC

Rocket: Long March 2D

Launch pad: Launch Area 94 (SLS-2 / 603)

Location: Jiuquan Satellite Launch Center, People's Republic of China

...

Latest news about this satellite

There are no fresh news available about this satellite. Check back as we update our databases every day.


Newsletter sign-up

Weekly statistics, charts and insights to help you stay on top of the space industry.